"Period start","avg(HW err(1)/warn(2) (#))","avg(Visibility (m))","avg(Weather code (#))","avg(Precip intensity (mm/h))","min(HW err(1)/warn(2) (#))","max(HW err(1)/warn(2) (#))","std(HW err(1)/warn(2) (#))","med(HW err(1)/warn(2) (#))","min(Visibility (m))","max(Visibility (m))","std(Visibility (m))","med(Visibility (m))","min(Weather code (#))","max(Weather code (#))","std(Weather code (#))","med(Weather code (#))","min(Precip intensity (mm/h))","max(Precip intensity (mm/h))","std(Precip intensity (mm/h))","med(Precip intensity (mm/h))"
2013-07-20 00:00:00,2,6132,10,0.00,2,2,0,2,4845,8156,945,6046,10,10,0,10,0.00,0.00,0.00,0.00
2013-07-20 00:10:00,2,5828,10,0.00,2,2,0,2,4575,7965,1039,5623,10,10,0,10,0.00,0.00,0.00,0.00
2013-07-20 00:20:00,2,6170,10,0.00,2,2,0,2,4729,7341,747,6158,10,10,0,10,0.00,0.00,0.00,0.00
2013-07-20 00:30:00,2,4094,10,0.00,2,2,0,2,3495,4622,373,4207,10,10,0,10,0.00,0.00,0.00,0.00
2013-07-20 00:40:00,2,3883,10,0.00,2,2,0,2,3198,4529,366,3964,10,10,0,10,0.00,0.00,0.00,0.00
2013-07-20 00:50:00,2,6153,10,0.00,2,2,0,2,4061,8795,1264,6076,10,10,0,10,0.00,0.00,0.00,0.00
2013-07-20 01:00:00,2,6602,10,0.00,2,2,0,2,5203,7733,907,6536,10,10,0,10,0.00,0.00,0.00,0.00
2013-07-20 01:10:00,2,5076,10,0.00,2,2,0,2,3964,6579,890,4901,10,10,0,10,0.00,0.00,0.00,0.00
2013-07-20 01:20:00,2,2891,10,0.00,2,2,0,2,1876,4162,726,2770,10,10,0,10,0.00,0.00,0.00,0.00
2013-07-20 01:30:00,2,1662,10,0.00,2,2,0,2,1545,1796,76,1660,10,10,0,10,0.00,0.00,0.00,0.00
2013-07-20 01:40:00,2,1801,10,0.00,2,2,0,2,1696,1906,59,1809,10,10,0,10,0.00,0.00,0.00,0.00
2013-07-20 01:50:00,2,2057,10,0.00,2,2,0,2,1827,2380,174,2062,10,10,0,10,0.00,0.00,0.00,0.00
2013-07-20 02:00:00,2,2844,10,0.00,2,2,0,2,2325,3254,321,3011,10,10,0,10,0.00,0.00,0.00,0.00
2013-07-20 02:10:00,2,3707,10,0.00,2,2,0,2,2882,4500,599,3730,10,10,0,10,0.00,0.00,0.00,0.00
2013-07-20 02:20:00,2,4327,10,0.00,2,2,0,2,3520,4905,431,4388,10,10,0,10,0.00,0.00,0.00,0.00
2013-07-20 02:30:00,2,6848,10,0.00,2,2,0,2,5581,9446,1158,6318,10,10,0,10,0.00,0.00,0.00,0.00
2013-07-20 02:40:00,2,10976,10,0.00,2,2,0,2,6878,14127,1777,11222,10,10,0,10,0.00,0.00,0.00,0.00
2013-07-20 02:50:00,2,32692,3,0.00,2,2,0,2,13716,50000,12411,30160,0,10,5,0,0.00,0.00,0.00,0.00
2013-07-20 03:00:00,2,47659,0,0.00,2,2,0,2,43181,50000,2505,48397,0,0,0,0,0.00,0.00,0.00,0.00
2013-07-20 03:10:00,2,45204,0,0.00,2,2,0,2,34769,50000,5250,46965,0,0,0,0,0.00,0.00,0.00,0.00
2013-07-20 03:20:00,2,43803,0,0.00,2,2,0,2,33142,50000,5665,45600,0,0,0,0,0.00,0.00,0.00,0.00
2013-07-20 03:30:00,2,46414,0,0.00,2,2,0,2,34626,50000,5691,49458,0,0,0,0,0.00,0.00,0.00,0.00
2013-07-20 03:40:00,1,42423,0,0.00,0,2,1,2,15877,50000,10150,46363,0,0,0,0,0.00,0.00,0.00,0.00
2013-07-20 03:50:00,1,48196,0,0.00,0,2,1,2,42434,50000,2827,50000,0,0,0,0,0.00,0.00,0.00,0.00
2013-07-20 04:00:00,2,49351,0,0.00,2,2,0,2,44606,50000,1598,50000,0,0,0,0,0.00,0.00,0.00,0.00
2013-07-20 04:10:00,2,45274,0,0.00,2,2,0,2,35090,50000,4308,45358,0,0,0,0,0.00,0.00,0.00,0.00
2013-07-20 04:20:00,0,47762,0,0.00,0,2,1,0,40402,50000,3642,50000,0,0,0,0,0.00,0.00,0.00,0.00
2013-07-20 04:30:00,0,48263,0,0.00,0,2,1,0,38137,50000,3475,50000,0,0,0,0,0.00,0.00,0.00,0.00
2013-07-20 04:40:00,0,49028,0,0.00,0,2,1,0,45441,50000,1534,50000,0,0,0,0,0.00,0.00,0.00,0.00
2013-07-20 04:50:00,0,46315,0,0.00,0,2,1,0,33815,50000,5948,50000,0,0,0,0,0.00,0.00,0.00,0.00
2013-07-20 05:00:00,0,46340,0,0.00,0,2,1,0,32663,50000,6120,49684,0,0,0,0,0.00,0.00,0.00,0.00
2013-07-20 05:10:00,0,48187,0,0.00,0,0,0,0,35736,50000,4220,50000,0,0,0,0,0.00,0.00,0.00,0.00
2013-07-20 05:20:00,1,48796,0,0.00,0,2,1,0,45430,50000,1869,50000,0,0,0,0,0.00,0.00,0.00,0.00
2013-07-20 05:30:00,2,39015,0,0.00,0,2,1,2,28351,49669,6578,36834,0,0,0,0,0.00,0.00,0.00,0.00
2013-07-20 05:40:00,0,46403,0,0.00,0,2,1,0,34636,50000,4975,48454,0,0,0,0,0.00,0.00,0.00,0.00
2013-07-20 05:50:00,1,45982,0,0.00,0,2,1,2,29173,50000,5957,47808,0,0,0,0,0.00,0.00,0.00,0.00
2013-07-20 06:00:00,1,46846,0,0.00,0,2,1,0,35075,50000,4788,48797,0,0,0,0,0.00,0.00,0.00,0.00
2013-07-20 06:10:00,1,49656,0,0.00,0,2,1,0,47582,50000,755,50000,0,0,0,0,0.00,0.00,0.00,0.00
2013-07-20 06:20:00,1,45082,0,0.00,0,2,1,0,35666,50000,4601,46938,0,0,0,0,0.00,0.00,0.00,0.00
2013-07-20 06:30:00,0,44236,0,0.00,0,0,0,0,34549,50000,5000,45144,0,0,0,0,0.00,0.00,0.00,0.00
2013-07-20 06:40:00,0,48641,0,0.00,0,0,0,0,44799,50000,1950,49541,0,0,0,0,0.00,0.00,0.00,0.00
2013-07-20 06:50:00,0,46082,0,0.00,0,0,0,0,36396,50000,4397,47119,0,0,0,0,0.00,0.00,0.00,0.00
2013-07-20 07:00:00,0,46840,0,0.00,0,0,0,0,35004,50000,5627,50000,0,0,0,0,0.00,0.00,0.00,0.00
2013-07-20 07:10:00,0,48052,0,0.00,0,0,0,0,42098,50000,2631,49773,0,0,0,0,0.00,0.00,0.00,0.00
2013-07-20 07:20:00,0,47395,0,0.00,0,0,0,0,38632,50000,3590,48909,0,0,0,0,0.00,0.00,0.00,0.00
2013-07-20 07:30:00,0,48766,0,0.00,0,0,0,0,44049,50000,1769,49489,0,0,0,0,0.00,0.00,0.00,0.00
2013-07-20 07:40:00,1,47868,0,0.00,0,2,1,1,38887,50000,4268,50000,0,0,0,0,0.00,0.00,0.00,0.00
2013-07-20 07:50:00,2,46413,0,0.00,2,2,0,2,41502,50000,2732,46948,0,0,0,0,0.00,0.00,0.00,0.00
2013-07-20 08:00:00,2,43976,0,0.00,2,2,0,2,32176,50000,6434,46220,0,0,0,0,0.00,0.00,0.00,0.00
2013-07-20 08:10:00,1,48719,0,0.00,0,2,1,1,44926,50000,2010,50000,0,0,0,0,0.00,0.00,0.00,0.00
2013-07-20 08:20:00,2,48949,0,0.00,2,2,0,2,45006,50000,1721,50000,0,0,0,0,0.00,0.00,0.00,0.00
2013-07-20 08:30:00,1,49376,0,0.00,0,2,1,0,43757,50000,1873,50000,0,0,0,0,0.00,0.00,0.00,0.00
2013-07-20 08:40:00,2,46538,0,0.00,2,2,0,2,34704,50000,4736,48682,0,0,0,0,0.00,0.00,0.00,0.00
2013-07-20 08:50:00,2,47170,0,0.00,0,2,1,2,37042,50000,4266,49488,0,0,0,0,0.00,0.00,0.00,0.00
2013-07-20 09:00:00,0,48872,0,0.00,0,2,1,0,45543,50000,1644,50000,0,0,0,0,0.00,0.00,0.00,0.00
2013-07-20 09:10:00,1,46464,0,0.00,0,2,1,1,37986,50000,4070,47936,0,0,0,0,0.00,0.00,0.00,0.00
2013-07-20 09:20:00,2,49327,0,0.00,0,2,1,2,47925,50000,861,49860,0,0,0,0,0.00,0.00,0.00,0.00
2013-07-20 09:30:00,2,49759,0,0.00,2,2,0,2,48573,50000,449,50000,0,0,0,0,0.00,0.00,0.00,0.00
2013-07-20 09:40:00,2,49971,0,0.00,2,2,0,2,49708,50000,88,50000,0,0,0,0,0.00,0.00,0.00,0.00
2013-07-20 09:50:00,2,50000,0,0.00,2,2,0,2,50000,50000,0,50000,0,0,0,0,0.00,0.00,0.00,0.00
2013-07-20 10:00:00,2,49308,0,0.00,2,2,0,2,44741,50000,1601,50000,0,0,0,0,0.00,0.00,0.00,0.00
2013-07-20 10:10:00,2,49886,0,0.00,2,2,0,2,49171,50000,256,50000,0,0,0,0,0.00,0.00,0.00,0.00
2013-07-20 10:20:00,2,42767,22,0.04,2,2,0,2,33763,50000,5527,43870,0,61,28,0,0.00,0.15,0.06,0.00
2013-07-20 10:30:00,2,47392,39,0.10,2,2,0,2,38635,50000,3692,50000,0,61,26,51,0.00,0.55,0.17,0.03
2013-07-20 10:40:00,2,50000,0,0.00,2,2,0,2,50000,50000,0,50000,0,0,0,0,0.00,0.00,0.00,0.00
2013-07-20 10:50:00,1,50000,0,0.00,0,2,1,2,50000,50000,0,50000,0,0,0,0,0.00,0.00,0.00,0.00
2013-07-20 11:00:00,0,50000,0,0.00,0,0,0,0,50000,50000,0,50000,0,0,0,0,0.00,0.00,0.00,0.00
2013-07-20 11:10:00,0,41962,0,0.00,0,0,0,0,21528,50000,11257,49610,0,0,0,0,0.00,0.00,0.00,0.00
2013-07-20 11:20:00,0,49639,0,0.00,0,2,1,0,47921,50000,733,50000,0,0,0,0,0.00,0.00,0.00,0.00
2013-07-20 11:30:00,2,34156,0,0.00,2,2,0,2,9286,50000,15877,37574,0,0,0,0,0.00,0.00,0.00,0.00
2013-07-20 11:40:00,2,5896,10,0.01,2,2,0,2,4051,8101,1149,5690,0,61,18,5,0.00,0.10,0.03,0.00
2013-07-20 11:50:00,2,2148,53,3.75,2,2,0,2,1876,2755,246,2110,52,61,3,52,2.45,5.35,0.98,3.70
2013-07-20 12:00:00,2,2721,54,0.93,2,2,0,2,2295,3080,265,2724,51,61,4,52,0.20,2.45,0.59,0.88
2013-07-20 12:10:00,2,3027,51,0.26,2,2,0,2,2649,3354,196,3016,41,61,6,51,0.00,0.45,0.17,0.35
2013-07-20 12:20:00,2,5627,16,0.01,2,2,0,2,3308,7121,1309,6258,10,41,12,10,0.00,0.10,0.03,0.00
2013-07-20 12:30:00,2,5053,10,0.00,2,2,0,2,4012,6765,899,4924,10,10,0,10,0.00,0.00,0.00,0.00
2013-07-20 12:40:00,2,2913,10,0.00,2,2,0,2,2303,3661,413,2795,10,10,0,10,0.00,0.00,0.00,0.00
2013-07-20 12:50:00,2,7353,10,0.00,2,2,0,2,3990,10016,1853,7858,10,10,0,10,0.00,0.00,0.00,0.00
2013-07-20 13:00:00,2,5219,10,0.00,2,2,0,2,3044,7067,1072,5449,10,10,0,10,0.00,0.00,0.00,0.00
2013-07-20 13:10:00,2,1635,36,0.33,2,2,0,2,1445,2336,258,1532,10,61,23,40,0.00,0.95,0.32,0.30
2013-07-20 13:20:00,2,1580,47,0.21,2,2,0,2,1476,1663,60,1592,41,61,9,41,0.15,0.35,0.07,0.17
2013-07-20 13:30:00,2,1149,53,0.92,2,2,0,2,753,1440,234,1124,41,61,10,61,0.15,3.45,0.98,0.45
2013-07-20 13:40:00,2,840,59,7.40,2,2,0,2,577,1139,184,854,53,61,4,61,4.00,11.40,2.54,6.88
2013-07-20 13:50:00,2,624,61,4.80,2,2,0,2,579,670,29,623,61,62,0,61,0.25,11.80,3.55,4.22
2013-07-20 14:00:00,2,562,61,0.48,2,2,0,2,526,603,21,557,61,61,0,61,0.40,0.60,0.06,0.47
2013-07-20 14:10:00,2,638,61,0.37,2,2,0,2,547,725,56,642,61,61,0,61,0.20,0.50,0.09,0.38
2013-07-20 14:20:00,2,481,45,0.11,2,2,0,2,400,575,62,472,41,61,8,41,0.05,0.15,0.03,0.10
2013-07-20 14:30:00,2,403,41,0.07,2,2,0,2,379,423,12,402,41,41,0,41,0.05,0.10,0.02,0.05
2013-07-20 14:40:00,2,519,38,0.07,2,2,0,2,410,621,69,516,34,41,4,38,0.00,0.20,0.09,0.03
2013-07-20 14:50:00,2,783,33,0.00,2,2,0,2,676,858,56,776,30,34,1,33,0.00,0.00,0.00,0.00
2013-07-20 15:00:00,2,1032,33,0.00,2,2,0,2,799,1285,150,1083,30,33,1,33,0.00,0.00,0.00,0.00
2013-07-20 15:10:00,2,1804,45,0.68,2,2,0,2,1417,2180,213,1838,30,52,8,46,0.00,1.10,0.34,0.73
2013-07-20 15:20:00,2,5828,29,0.07,2,2,0,2,1805,8611,2639,6434,20,52,14,20,0.00,0.50,0.15,0.00
2013-07-20 15:30:00,2,39253,20,0.00,2,2,0,2,13806,50000,12472,43850,20,20,0,20,0.00,0.00,0.00,0.00
2013-07-20 15:40:00,2,46452,20,0.00,2,2,0,2,35648,50000,4400,48082,20,20,0,20,0.00,0.00,0.00,0.00
2013-07-20 15:50:00,2,42703,20,0.00,2,2,0,2,22706,50000,10401,50000,20,20,0,20,0.00,0.00,0.00,0.00
2013-07-20 16:00:00,2,50000,20,0.00,2,2,0,2,50000,50000,0,50000,20,20,0,20,0.00,0.00,0.00,0.00
2013-07-20 16:10:00,2,50000,6,0.00,2,2,0,2,50000,50000,0,50000,0,20,9,0,0.00,0.00,0.00,0.00
2013-07-20 16:20:00,2,49972,0,0.00,0,2,1,2,49719,50000,84,50000,0,0,0,0,0.00,0.00,0.00,0.00
2013-07-20 16:30:00,1,50000,0,0.00,0,2,1,2,50000,50000,0,50000,0,0,0,0,0.00,0.00,0.00,0.00
2013-07-20 16:40:00,0,50000,0,0.00,0,0,0,0,50000,50000,0,50000,0,0,0,0,0.00,0.00,0.00,0.00
2013-07-20 16:50:00,0,50000,0,0.00,0,2,1,0,50000,50000,0,50000,0,0,0,0,0.00,0.00,0.00,0.00
2013-07-20 17:00:00,2,40142,0,0.00,0,2,1,2,32463,50000,4245,39704,0,0,0,0,0.00,0.00,0.00,0.00
2013-07-20 17:10:00,2,12731,0,0.00,2,2,0,2,8909,18024,2747,11994,0,0,0,0,0.00,0.00,0.00,0.00
2013-07-20 17:20:00,2,11868,0,0.00,2,2,0,2,8932,15258,1940,11756,0,0,0,0,0.00,0.00,0.00,0.00
2013-07-20 17:30:00,2,10067,8,0.07,2,2,0,2,6332,19059,3606,8760,0,40,16,0,0.00,0.65,0.20,0.00
2013-07-20 17:40:00,2,13294,15,0.04,2,2,0,2,6548,21058,4434,12554,0,52,24,0,0.00,0.40,0.12,0.00
2013-07-20 17:50:00,2,22350,0,0.00,2,2,0,2,13445,40349,8245,20588,0,0,0,0,0.00,0.00,0.00,0.00
2013-07-20 18:00:00,2,40626,0,0.00,2,2,0,2,29706,50000,7489,41318,0,0,0,0,0.00,0.00,0.00,0.00
2013-07-20 18:10:00,2,49128,0,0.00,2,2,0,2,44391,50000,1771,50000,0,0,0,0,0.00,0.00,0.00,0.00
2013-07-20 18:20:00,2,49232,0,0.00,2,2,0,2,45870,50000,1324,50000,0,0,0,0,0.00,0.00,0.00,0.00
2013-07-20 18:30:00,2,48905,0,0.00,2,2,0,2,46125,50000,1518,50000,0,0,0,0,0.00,0.00,0.00,0.00
2013-07-20 18:40:00,2,49959,0,0.00,2,2,0,2,49591,50000,123,50000,0,0,0,0,0.00,0.00,0.00,0.00
2013-07-20 18:50:00,2,49494,0,0.00,2,2,0,2,46409,50000,1117,50000,0,0,0,0,0.00,0.00,0.00,0.00
2013-07-20 19:00:00,2,48887,0,0.00,2,2,0,2,43703,50000,1895,50000,0,0,0,0,0.00,0.00,0.00,0.00
2013-07-20 19:10:00,2,50000,0,0.00,2,2,0,2,50000,50000,0,50000,0,0,0,0,0.00,0.00,0.00,0.00
2013-07-20 19:20:00,2,30968,0,0.00,2,2,0,2,21572,50000,8827,26928,0,0,0,0,0.00,0.00,0.00,0.00
2013-07-20 19:30:00,2,43457,0,0.00,2,2,0,2,34953,50000,5320,44148,0,0,0,0,0.00,0.00,0.00,0.00
2013-07-20 19:40:00,2,32641,0,0.00,2,2,0,2,24543,42664,5316,32000,0,0,0,0,0.00,0.00,0.00,0.00
2013-07-20 19:50:00,2,38753,0,0.00,2,2,0,2,30377,46603,4262,39099,0,0,0,0,0.00,0.00,0.00,0.00
2013-07-20 20:00:00,2,38195,0,0.00,2,2,0,2,31001,41689,3146,39335,0,0,0,0,0.00,0.00,0.00,0.00
2013-07-20 20:10:00,2,39731,0,0.00,2,2,0,2,34547,44923,3372,40818,0,0,0,0,0.00,0.00,0.00,0.00
2013-07-20 20:20:00,2,35916,0,0.00,2,2,0,2,27388,43958,6456,36733,0,0,0,0,0.00,0.00,0.00,0.00
2013-07-20 20:30:00,2,40745,0,0.00,2,2,0,2,35510,46410,3297,40448,0,0,0,0,0.00,0.00,0.00,0.00
2013-07-20 20:40:00,2,35190,0,0.00,2,2,0,2,27662,42272,5392,34606,0,0,0,0,0.00,0.00,0.00,0.00
2013-07-20 20:50:00,2,42106,0,0.00,2,2,0,2,27417,50000,6723,43004,0,0,0,0,0.00,0.00,0.00,0.00
2013-07-20 21:00:00,2,40742,0,0.00,2,2,0,2,28655,50000,6706,42948,0,0,0,0,0.00,0.00,0.00,0.00
2013-07-20 21:10:00,2,38647,0,0.00,2,2,0,2,28678,44743,4530,39232,0,0,0,0,0.00,0.00,0.00,0.00
2013-07-20 21:20:00,2,37871,0,0.00,2,2,0,2,33424,41092,2908,38681,0,0,0,0,0.00,0.00,0.00,0.00
2013-07-20 21:30:00,2,37742,0,0.00,2,2,0,2,26183,50000,7504,37896,0,0,0,0,0.00,0.00,0.00,0.00
2013-07-20 21:40:00,2,40349,0,0.00,2,2,0,2,32259,50000,5554,39938,0,0,0,0,0.00,0.00,0.00,0.00
2013-07-20 21:50:00,2,37246,0,0.00,2,2,0,2,22889,49238,8588,39028,0,0,0,0,0.00,0.00,0.00,0.00
2013-07-20 22:00:00,2,44256,0,0.00,2,2,0,2,36746,48314,4239,45555,0,0,0,0,0.00,0.00,0.00,0.00
2013-07-20 22:10:00,2,47128,0,0.00,2,2,0,2,43685,50000,2603,47356,0,0,0,0,0.00,0.00,0.00,0.00
2013-07-20 22:20:00,2,42257,0,0.00,2,2,0,2,33554,50000,5984,41631,0,0,0,0,0.00,0.00,0.00,0.00
2013-07-20 22:30:00,2,44322,0,0.00,2,2,0,2,34721,50000,4860,44590,0,0,0,0,0.00,0.00,0.00,0.00
2013-07-20 22:40:00,2,45907,0,0.00,2,2,0,2,36444,50000,5159,49117,0,0,0,0,0.00,0.00,0.00,0.00
2013-07-20 22:50:00,2,48128,0,0.00,2,2,0,2,41403,50000,2994,50000,0,0,0,0,0.00,0.00,0.00,0.00
2013-07-20 23:00:00,2,45437,0,0.00,2,2,0,2,39368,50000,3384,46058,0,0,0,0,0.00,0.00,0.00,0.00
2013-07-20 23:10:00,2,48183,0,0.00,2,2,0,2,42894,50000,2367,49312,0,0,0,0,0.00,0.00,0.00,0.00
2013-07-20 23:20:00,2,49367,0,0.00,2,2,0,2,46058,50000,1164,49984,0,0,0,0,0.00,0.00,0.00,0.00
2013-07-20 23:30:00,2,45840,0,0.00,2,2,0,2,38203,50000,4051,46710,0,0,0,0,0.00,0.00,0.00,0.00
2013-07-20 23:40:00,2,47645,0,0.00,2,2,0,2,42208,49748,2362,48928,0,0,0,0,0.00,0.00,0.00,0.00
2013-07-20 23:50:00,2,45039,0,0.00,2,2,0,2,36152,50000,4857,46975,0,0,0,0,0.00,0.00,0.00,0.00
